GW2967 Weather Reports


time (UTC)temp
C
wind
direction
speed
KPH
gust
KPH
rain 1hr
cm
rain 24hr
cm
rain mn
cm
humidity
%
barometer
mb
20260506231528 16 0 0.0 0.0 0.00 1.30 1.30 65 1007.3
20260506230033 16 0 0.0 0.0 0.00 1.30 1.30 65 1007.2
20260506224533 16 0 0.0 1.6 0.00 1.30 1.30 65 1007.1
20260506223041 16 0 0.0 1.6 0.00 1.30 1.30 64 1007.1
20260506221531 17 0 0.0 0.0 0.00 1.30 1.30 64 1007.0
20260506220030 17 0 0.0 3.2 0.00 1.30 1.30 64 1006.9
20260506214538 17 0 0.0 1.6 0.00 1.30 1.30 64 1006.8
20260506213029 17 0 0.0 3.2 0.00 1.30 1.30 64 1006.6
20260506211529 16 0 0.0 0.0 0.00 1.30 1.30 64 1006.4
20260506210030 16 131 0.0 1.6 0.00 1.30 1.30 64 1006.4
20260506204529 16 0 0.0 0.0 0.00 1.30 1.30 64 1006.4
20260506203033 16 0 0.0 0.0 0.00 1.30 1.30 64 1006.4
20260506201529 16 0 0.0 1.6 0.00 1.30 1.30 65 1006.2
20260506200027 16 0 0.0 3.2 0.00 1.30 1.30 66 1006.4
20260506193027 15 243 0.0 4.8 0.03 1.30 1.30 67 1006.5
20260506191528 15 0 0.0 3.2 0.05 1.30 1.30 67 1006.7
20260506190028 15 242 0.0 4.8 0.10 1.30 1.30 67 1006.7
20260506184543 15 188 0.0 3.2 0.10 1.27 1.27 67 1006.7
20260506183038 15 239 0.0 8.0 0.15 1.27 1.27 67 1006.9
20260506181537 15 0 0.0 1.6 0.23 1.24 1.24 67 1007.0
20260506180036 15 138 0.0 1.6 0.20 1.19 1.19 67 1007.2
20260506174529 15 248 0.0 3.2 0.25 1.17 1.17 67 1007.2
20260506173039 15 212 0.0 6.4 0.28 1.09 1.09 68 1007.1
20260506171528 15 0 0.0 4.8 0.20 1.02 1.02 67 1007.2
20260506170028 15 210 0.0 1.6 0.20 0.99 0.99 67 1007.4
20260506164535 15 0 0.0 4.8 0.15 0.91 0.91 67 1007.3
20260506163030 15 0 0.0 4.8 0.15 0.81 0.81 66 1007.6
20260506161528 15 0 0.0 1.6 0.30 0.81 0.81 66 1007.6
20260506160032 15 0 0.0 1.6 0.36 0.79 0.79 66 1007.6
20260506154532 15 0 0.0 4.8 0.36 0.74 0.74 66 1007.6
20260506153027 15 217 0.0 3.2 0.33 0.66 0.66 66 1007.7
20260506151528 15 0 0.0 3.2 0.20 0.51 0.51 66 1008.3
20260506150031 15 0 0.0 3.2 0.18 0.43 0.43 65 1007.9
20260506144529 15 0 0.0 3.2 0.15 0.38 0.38 65 1007.8
20260506143032 15 53 0.0 6.4 0.15 0.33 0.33 65 1007.8
20260506141532 15 0 0.0 0.0 0.18 0.30 0.30 66 1008.1
20260506140029 15 0 0.0 0.0 0.18 0.25 0.25 66 1008.3
20260506134531 15 0 0.0 1.6 0.18 0.23 0.23 66 1008.1
20260506133028 15 0 0.0 0.0 0.15 0.18 0.18 66 1008.5
20260506131534 15 0 0.0 0.0 0.10 0.13 0.13 66 1008.4
20260506130028 15 0 0.0 1.6 0.05 0.08 0.08 67 1008.7
20260506124529 15 0 0.0 0.0 0.05 0.05 0.05 68 1008.5
20260506123030 15 0 0.0 0.0 0.03 0.03 0.03 69 1008.4
20260506121530 15 0 0.0 0.0 0.03 0.03 0.03 70 1008.3
20260506120030 15 0 0.0 1.6 0.03 0.03 0.03 71 1008.2
20260506114531 15 0 0.0 1.6 0.00 0.00 0.00 71 1008.1
20260506113037 15 0 0.0 0.0 0.00 0.00 0.00 68 1008.2
20260506111532 15 0 0.0 0.0 0.00 0.00 0.00 66 1008.3
20260506110031 15 0 0.0 1.6 0.00 0.00 0.00 64 1008.0
20260506104533 15 0 0.0 0.0 0.00 0.00 0.00 64 1007.9
20260506103029 15 0 0.0 3.2 0.00 0.00 0.00 63 1007.5
20260506101528 15 0 0.0 0.0 0.00 0.00 0.00 64 1007.6
20260506100028 15 0 0.0 0.0 0.00 0.00 0.00 62 1007.7
20260506094530 15 0 0.0 0.0 0.00 0.00 0.00 62 1007.8
20260506093029 15 0 0.0 1.6 0.00 0.00 0.00 62 1007.8
20260506091530 15 0 0.0 0.0 0.00 0.00 0.00 61 1007.8
20260506090032 15 0 0.0 0.0 0.00 0.00 0.00 61 1007.9
20260506084530 15 0 0.0 0.0 0.00 0.05 0.00 60 1007.8
20260506083031 15 0 0.0 0.0 0.00 0.05 0.00 60 1008.0
20260506081530 15 0 0.0 0.0 0.00 0.05 0.00 59 1007.9
20260506073030 15 0 0.0 0.0 0.00 0.05 0.00 57 1008.0
20260506071530 15 0 0.0 0.0 0.00 0.05 0.00 56 1008.2
20260506061528 15 0 0.0 1.6 0.00 0.05 0.00 55 1008.6
20260506044531 15 0 0.0 1.6 0.00 0.05 0.00 56 1009.1
20260506043027 15 0 0.0 0.0 0.00 0.05 0.00 55 1009.1
20260506041530 14 0 0.0 0.0 0.00 0.05 0.00 55 1009.1
20260506040030 15 0 0.0 0.0 0.00 0.05 0.00 54 1009.3
20260506034532 15 0 0.0 0.0 0.00 0.05 0.05 54 1009.1
20260506033028 15 0 0.0 0.0 0.00 0.05 0.05 54 1009.1
20260506031530 15 0 0.0 0.0 0.00 0.05 0.05 52 1009.1
20260506030038 16 0 0.0 0.0 0.00 0.05 0.05 51 1009.1
20260506024553 16 0 0.0 0.0 0.00 0.05 0.05 50 1009.1
20260506023031 16 0 0.0 1.6 0.00 0.05 0.05 49 1009.1
20260506021532 16 0 0.0 1.6 0.00 0.05 0.05 50 1009.1
20260506020028 17 0 0.0 0.0 0.00 0.05 0.05 49 1008.9
20260506014527 17 0 0.0 0.0 0.00 0.05 0.05 46 1008.8
20260506013039 18 0 0.0 0.0 0.00 0.05 0.05 46 1008.7
20260506011531 18 0 0.0 0.0 0.00 0.05 0.05 45 1008.6
20260506010031 19 0 0.0 0.0 0.00 0.05 0.05 43 1008.5
20260506004531 20 0 0.0 0.0 0.00 0.05 0.05 41 1008.0
20260506003034 21 0 0.0 0.0 0.00 0.05 0.05 39 1008.0
20260506001536 22 0 0.0 4.8 0.00 0.05 0.05 37 1007.8
20260506000032 22 0 0.0 4.8 0.00 0.05 0.05 34 1007.8
20260505234535 23 0 1.6 4.8 0.00 0.05 0.05 33 1007.7
20260505233028 23 0 1.6 11.3 0.00 0.05 0.05 32 1007.6